TimeEDT,TemperatureF,Dew PointF,Humidity,Sea Level PressureIn,VisibilityMPH,Wind Direction,Wind SpeedMPH,Gust SpeedMPH,PrecipitationIn,Events,Conditions,WindDirDegrees,DateUTC
12:52 AM,62.1,54.0,75,30.22,10.0,Calm,Calm,-,N/A,,Partly Cloudy,0,2013-09-29 04:52:00
1:52 AM,61.0,54.0,78,30.22,10.0,Calm,Calm,-,N/A,,Clear,0,2013-09-29 05:52:00
2:52 AM,57.9,53.1,84,30.20,10.0,North,4.6,-,N/A,,Clear,350,2013-09-29 06:52:00
3:52 AM,55.9,52.0,87,30.19,10.0,NNW,4.6,-,N/A,,Partly Cloudy,340,2013-09-29 07:52:00
4:52 AM,55.9,52.0,87,30.18,10.0,NNW,3.5,-,N/A,,Scattered Clouds,340,2013-09-29 08:52:00
5:52 AM,55.0,51.1,86,30.18,10.0,North,6.9,-,N/A,,Partly Cloudy,350,2013-09-29 09:52:00
6:52 AM,55.0,51.1,86,30.19,10.0,North,5.8,-,N/A,,Partly Cloudy,350,2013-09-29 10:52:00
7:52 AM,55.9,52.0,87,30.19,10.0,North,3.5,-,N/A,,Scattered Clouds,10,2013-09-29 11:52:00
8:52 AM,61.0,55.0,81,30.19,10.0,NNE,3.5,-,N/A,,Scattered Clouds,20,2013-09-29 12:52:00
9:52 AM,64.9,55.0,70,30.19,10.0,ENE,5.8,-,N/A,,Scattered Clouds,60,2013-09-29 13:52:00
10:52 AM,70.0,55.9,61,30.19,10.0,North,4.6,-,N/A,,Mostly Cloudy,360,2013-09-29 14:52:00
11:04 AM,69.8,55.4,60,30.19,10.0,Calm,Calm,-,N/A,,Mostly Cloudy,0,2013-09-29 15:04:00
11:52 AM,71.1,55.0,57,30.17,10.0,Variable,4.6,-,N/A,,Mostly Cloudy,0,2013-09-29 15:52:00
12:52 PM,70.0,54.0,57,30.16,10.0,Calm,Calm,-,N/A,,Mostly Cloudy,0,2013-09-29 16:52:00
1:52 PM,73.0,53.1,49,30.13,10.0,North,3.5,-,N/A,,Mostly Cloudy,10,2013-09-29 17:52:00
2:52 PM,75.0,52.0,44,30.10,10.0,Calm,Calm,-,N/A,,Mostly Cloudy,0,2013-09-29 18:52:00
3:52 PM,73.0,53.1,49,30.09,10.0,East,4.6,-,N/A,,Mostly Cloudy,100,2013-09-29 19:52:00
4:52 PM,73.9,54.0,50,30.08,10.0,SE,9.2,-,N/A,,Mostly Cloudy,140,2013-09-29 20:52:00
5:52 PM,73.0,51.1,46,30.08,10.0,ESE,6.9,-,N/A,,Scattered Clouds,110,2013-09-29 21:52:00
6:52 PM,70.0,52.0,53,30.09,10.0,ESE,5.8,-,N/A,,Scattered Clouds,120,2013-09-29 22:52:00
7:52 PM,66.9,52.0,59,30.09,10.0,SE,4.6,-,N/A,,Mostly Cloudy,130,2013-09-29 23:52:00
8:52 PM,66.0,53.1,63,30.09,10.0,Calm,Calm,-,N/A,,Partly Cloudy,0,2013-09-30 00:52:00
9:52 PM,66.0,54.0,65,30.08,10.0,ESE,3.5,-,N/A,,Scattered Clouds,110,2013-09-30 01:52:00
10:52 PM,64.9,53.1,65,30.09,10.0,SE,3.5,-,N/A,,Mostly Cloudy,140,2013-09-30 02:52:00
11:52 PM,62.1,52.0,70,30.09,10.0,South,3.5,-,N/A,,Mostly Cloudy,180,2013-09-30 03:52:00